MM3NTX-13 Weather Reports


Display with metric or nautical units.
time (UTC)temp
F
wind
direction
speed
MPH
gust
MPH
rain 1hr
in
rain 24hr
in
rain mn
in
humidity
%
barometer
mb
20260506123619 52 171 3.0 4.0 0.00 0.00 0.00 52 1014.7
20260506122719 54 165 2.0 4.0 0.00 0.00 0.00 51 1014.3
20260506121819 53 203 2.0 4.0 0.00 0.00 0.00 52 1014.4
20260506120919 51 195 2.0 4.0 0.00 0.00 0.00 52 1014.7
20260506120021 51 191 2.0 4.0 0.00 0.00 0.00 50 1014.7
20260506115119 54 350 2.0 4.0 0.00 0.00 0.00 48 1014.8
20260506114219 54 82 3.0 4.0 0.00 0.00 0.00 50 1014.8
20260506113319 53 141 3.0 6.0 0.00 0.00 0.00 51 1015.0
20260506112419 52 183 4.0 7.0 0.00 0.00 0.00 52 1014.8
20260506111520 52 164 3.0 6.0 0.00 0.00 0.00 51 1014.9
20260506110620 53 157 3.0 4.0 0.00 0.00 0.00 52 1015.3
20260506105719 52 197 3.0 6.0 0.00 0.00 0.00 51 1015.3
20260506104819 53 167 2.0 6.0 0.00 0.00 0.00 51 1015.0
20260506103920 53 156 4.0 7.0 0.00 0.00 0.00 49 1015.4
20260506103019 51 182 4.0 6.0 0.00 0.00 0.00 53 1015.1
20260506102119 52 171 2.0 4.0 0.00 0.00 0.00 52 1015.4
20260506101219 51 188 3.0 4.0 0.00 0.00 0.00 54 1015.4
20260506100320 49 184 4.0 7.0 0.00 0.00 0.00 56 1015.5
20260506094520 51 185 3.0 7.0 0.00 0.00 0.00 53 1015.5
20260506093622 49 188 4.0 7.0 0.00 0.00 0.00 54 1015.6
20260506092720 50 182 3.0 4.0 0.00 0.00 0.00 53 1015.6
20260506091820 49 183 4.0 6.0 0.00 0.00 0.00 54 1015.6
20260506090020 47 182 3.0 4.0 0.00 0.00 0.00 60 1015.9
20260506084220 46 181 3.0 6.0 0.00 0.00 0.00 60 1015.8
20260506083319 46 173 2.0 4.0 0.00 0.00 0.00 62 1015.9
20260506082420 46 177 3.0 4.0 0.00 0.00 0.00 64 1016.0
20260506081521 45 171 3.0 6.0 0.00 0.00 0.00 63 1016.2
20260506080620 45 178 3.0 4.0 0.00 0.00 0.00 67 1016.0
20260506073020 43 68 1.0 2.0 0.00 0.00 0.00 73 1016.4
20260506072119 43 68 1.0 2.0 0.00 0.00 0.00 75 1016.4
20260506071219 42 68 1.0 2.0 0.00 0.00 0.00 77 1016.1
20260506061819 40 68 0.0 2.0 0.00 0.00 0.00 84 1016.0
20260506044823 37 68 1.0 2.0 0.00 0.00 0.00 90 1016.0
20260506043023 37 68 0.0 2.0 0.00 0.00 0.00 90 1016.1
20260506041219 37 0 0.0 0.0 0.00 0.00 0.00 90 1016.2
20260506040320 37 0 0.0 0.0 0.00 0.00 0.00 90 1015.9
20260506035420 37 0 0.0 0.0 0.00 0.00 0.00 90 1016.0
20260506033620 37 0 0.0 0.0 0.00 0.00 0.00 90 1016.0
20260506031820 37 0 0.0 0.0 0.00 0.00 0.00 89 1016.2
20260506030920 38 0 0.0 0.0 0.00 0.00 0.00 88 1016.3
20260506030020 38 0 0.0 0.0 0.00 0.00 0.00 88 1016.2
20260506025120 38 0 0.0 0.0 0.00 0.00 0.00 87 1016.3
20260506024220 38 0 0.0 0.0 0.00 0.00 0.00 86 1016.4
20260506023320 38 0 0.0 0.0 0.00 0.00 0.00 86 1016.4
20260506022420 38 68 0.0 2.0 0.00 0.00 0.00 84 1016.4
20260506021520 39 68 0.0 2.0 0.00 0.00 0.00 83 1016.3
20260506015720 39 0 0.0 0.0 0.00 0.00 0.00 84 1016.3
20260506014820 39 0 0.0 0.0 0.00 0.00 0.00 83 1016.4
20260506013920 39 68 1.0 2.0 0.00 0.00 0.00 83 1016.5
20260506013020 39 68 0.0 2.0 0.00 0.00 0.00 84 1016.4
20260506012120 39 0 0.0 0.0 0.00 0.00 0.00 84 1016.4
20260506011220 39 0 0.0 0.0 0.00 0.00 0.00 84 1016.5
20260506010320 39 0 0.0 0.0 0.00 0.00 0.00 84 1016.5
20260506005420 39 0 0.0 0.0 0.00 0.00 0.00 85 1016.5
20260506003620 38 0 0.0 0.0 0.00 0.00 0.00 86 1016.7
20260506002720 39 0 0.0 0.0 0.00 0.00 0.00 86 1016.8
20260506001820 39 0 0.0 0.0 0.00 0.00 0.00 86 1016.6
20260506000920 39 0 0.0 0.0 0.00 0.00 0.00 85 1016.4
20260506000020 39 0 0.0 0.0 0.00 0.00 0.00 82 1016.6
20260505235120 40 0 0.0 0.0 0.00 0.00 0.00 80 1016.7
20260505234222 40 68 0.0 2.0 0.00 0.00 0.00 80 1016.4
20260505232420 40 68 0.0 2.0 0.00 0.00 0.00 80 1016.7
20260505231520 40 68 1.0 2.0 0.00 0.00 0.00 81 1016.7
20260505230621 40 68 0.0 2.0 0.00 0.00 0.00 81 1016.8
20260505225720 40 0 0.0 0.0 0.00 0.00 0.00 80 1017.1
20260505224820 41 0 0.0 0.0 0.00 0.00 0.00 78 1016.8
20260505223920 41 0 0.0 0.0 0.00 0.00 0.00 78 1016.9
20260505223020 41 68 0.0 2.0 0.00 0.00 0.00 78 1017.1
20260505222120 41 68 1.0 2.0 0.00 0.00 0.00 77 1016.8
20260505221220 41 68 0.0 2.0 0.00 0.00 0.00 77 1016.9
20260505220320 41 68 0.0 2.0 0.00 0.00 0.00 77 1017.0
20260505215420 41 68 0.0 2.0 0.00 0.00 0.00 76 1017.0
20260505213620 42 68 0.0 2.0 0.00 0.00 0.00 76 1016.9
20260505212720 42 68 0.0 2.0 0.00 0.00 0.00 75 1016.9
20260505210920 42 68 1.0 2.0 0.00 0.00 0.00 75 1016.8
20260505210020 42 68 2.0 2.0 0.00 0.00 0.00 74 1016.9
20260505205120 42 60 2.0 4.0 0.00 0.00 0.00 74 1016.8
20260505204220 42 169 2.0 4.0 0.00 0.00 0.00 73 1016.9
20260505203320 42 196 2.0 4.0 0.00 0.00 0.00 72 1016.8
20260505201520 43 168 2.0 4.0 0.00 0.00 0.00 72 1016.8
20260505195720 43 188 3.0 4.0 0.00 0.00 0.00 71 1016.6
20260505194819 43 170 3.0 4.0 0.00 0.00 0.00 72 1016.6
20260505193919 43 187 2.0 4.0 0.00 0.00 0.00 71 1016.6
20260505193020 43 148 3.0 4.0 0.00 0.00 0.00 71 1016.4
20260505192120 44 172 3.0 6.0 0.00 0.00 0.00 70 1016.4
20260505191220 44 155 4.0 7.0 0.00 0.00 0.00 72 1016.4
20260505190320 44 171 4.0 7.0 0.00 0.00 0.00 71 1016.2
20260505185421 44 250 3.0 4.0 0.00 0.00 0.00 72 1016.1
20260505184520 44 218 4.0 7.0 0.00 0.00 0.00 74 1016.3
20260505183619 45 154 3.0 6.0 0.00 0.00 0.00 73 1016.3
20260505182720 45 185 3.0 6.0 0.00 0.00 0.00 73 1016.3
20260505181820 45 161 3.0 6.0 0.00 0.00 0.00 72 1016.2
20260505180920 45 321 4.0 7.0 0.00 0.00 0.00 72 1016.2
20260505180020 45 34 4.0 7.0 0.00 0.00 0.00 71 1016.2
20260505175120 46 145 4.0 7.0 0.00 0.00 0.00 71 1016.1
20260505174220 46 146 4.0 6.0 0.00 0.00 0.00 69 1016.0
20260505172419 46 16 4.0 6.0 0.00 0.00 0.00 70 1016.2
20260505171520 46 186 4.0 4.0 0.00 0.00 0.00 70 1016.3
20260505165720 47 159 3.0 4.0 0.00 0.00 0.00 72 1015.8
20260505164820 47 94 3.0 6.0 0.00 0.00 0.00 71 1016.2
20260505163920 47 160 4.0 8.0 0.00 0.00 0.00 70 1016.0
20260505163020 47 8 4.0 6.0 0.00 0.00 0.00 71 1016.1
20260505161220 47 16 5.0 7.0 0.00 0.00 0.00 71 1015.8
20260505152720 48 346 4.0 4.0 0.00 0.00 0.00 69 1015.6
20260505151820 48 163 5.0 6.0 0.00 0.00 0.00 68 1015.6
20260505150920 49 292 5.0 6.0 0.00 0.00 0.00 68 1015.7
20260505140620 49 149 4.0 7.0 0.00 0.00 0.00 69 1015.3
20260505124521 49 14 4.0 8.0 0.00 0.00 0.00 72 1015.1